Location: Kikino
(54.4440°N, 112.0940°W)
Time: 17:50:51
(UTC+00:00)

A-11 Canister half - Pass Details

Date: 20 May 2024
Orbit: 1525 x 1683 km, 47.3° (Epoch: 12 June)

Event Time Altitude Azimuth Distance (km) Brightness Sun altitude
Rises 09:49:56 0° 275° (W) 4,771 11.3 -9.2°
Reaches altitude 10° 09:53:06 10° 270° (W) 3,807 10.7 -9.0°
Maximum altitude 10:02:13 48° 201° (SSW) 2,040 9.3 -8.2°
Drops below altitude 10° 10:11:37 10° 131° (SE) 3,912 11.1 -7.3°
Sets 10:14:56 0° 126° (SE) 4,912 11.7 -7.0°
